Weather in Yermaki

Russia / Tyumen Oblast     57°15′18″N   70°56′14″E
temp.,
°C
wind,
m/s
gust,
m/s
humid.,
%
clouds,
%
prec.,
mm/h
press.,
hPa
HPBL,
m
13 august, sat
sat1323:00+13w3109029 0.1 1010399
02:00+13wsw388829 0.0 1009257
05:00+11wsw399568 0.0 1008197
08:00+13wsw2997100 1.1 1007365
11:00+21w596149 2.1 10061230
14:00+20w6106664 0.9 10041241
17:00+18wnw611795 2.4 10041181
20:00+16wnw512700 0.4 10051002
14 august, sun
sun1423:00+14wnw6137414 0.4 10061163
02:00+13wnw5128379 0.0 1007812
05:00+12wnw51188100 0.1 1008850
08:00+14nw5106961 0.0 10101072
11:00+18nw6947100 0.1 10112128
14:00+17nw585281 0.2 10121677
17:00+16nw510635 1.1 10131515
20:00+13nw49706 0.2 1014830
15 august, mon
mon1523:00+9wnw310905 0.2 1015248
02:00+8wnw399242 0.0 1016223
05:00+7nw310955 0.0 1017316
08:00+12nw49590 0.0 10181189
11:00+14nnw58426 0.0 10181715
14:00+17nw593672 0.0 10182298
17:00+15nw5946100 0.0 10181903
20:00+12n26596 0.0 1019344
16 august, tue
tue1623:00+6nnw228027 0.0 102019
02:00+6w22805 0.0 102036
05:00+5w24825 0.0 102081
08:00+13w356022 0.0 1019441
11:00+18wnw474258 0.0 10171858
14:00+18wnw5943100 0.0 10162333
17:00+15w586329 0.1 10161080
20:00+12nw4119199 1.4 1015435
17 august, wed
wed1723:00+9wnw3109693 1.4 1015291
02:00+8nw399772 0.0 1015265
05:00+7nw3109815 0.0 1016309
08:00+9nw488479 0.0 1016572
11:00+11nw686798 0.1 10161081
14:00+9nnw598492 0.6 10171048
17:00+10nnw478151 0.9 1017674
20:00+8nw399497 0.6 1018269